Terminal Aerodrome Forecast
Issued by NWS

Home | Current Version | Previous Version | Text Only | Print | Product List | Glossary Off
Versions: 1 2 3 4 5 6 7 8 9 10 11 12 13 14 15 16

000
FTUS45 KGGW 301800 AAA
TAFSDY
TAF AMD
KSDY 301838Z 3019/0118 VRB06KT P6SM -SHRA OVC012
     FM010600 30014KT P6SM -RA OVC015
     FM011100 29017KT P6SM OVC025
      AMD LTD TO CLD VIS AND WIND=

USA.gov is the U.S. government's official web portal to all federal, state and local government web resources and services.